Retour au catalogue

STARLINK-35121

ActifCommunicationsVLEO
NORAD 65737·PAYLOAD·🇺🇸 United States

Lancé Sep 25, 2025 depuis Cape Canaveral Space Force Station

Loading…

Prochains Passages (prochaines 24 heures)

TLE

FraisSource: CelesTrak SupGP

Époque: Sep 15, 2026, 03:52 UTC

1 65737C 25216D   26258.16159722 -.00000772  00000+0 -22803-4 0  2584
2 65737  53.1578 170.4914 0001428  87.1558 335.6013 15.34380578    10

Suivez STARLINK-35121 en temps réel avec AllMySat

Download on the App Store